Startpagina
METAR-TAF:

METAR-TAF

Vliegvelden :

Vlieland Heliport

Vlieland, Nederland

breedte: 53-15N, lengte: 004-55E, hoogte: 11 m

Actueel weer

Dit bericht is 28 minuten geleden gemaakt, om 20:25 UTC
Wind 16 kt uit het oosten
Temperatuur 15°C
Vochtigheid 63%
Druk 1007 hPa
Zicht 10 km of meer
Geheel bewolkt op 31000 ft

METAR: EHVL 222025Z AUTO 09016KT 9999 OVC310 15/08 Q1007 BLU

Tijdstip: 22:53 (20:53 UTC)


TAF: ontbreekt

Waarnemingen en weersverwachtingen van meer dan 4000 vliegvelden (METAR en TAF).

De beschikbare stations zijn de gele en rode punten op de kaart.

Ga met uw muis naar het station om de naam te zien.

Klik dan om waarnemingen en weersverwachtingen te zien.

kaart wijzigen: klik op de groene knoppen met een zwart kruis om in te zoomen, op de groene knop met een streepje om uit te zoomen of op de groene pijlen voor aangrenzende kaarten.


METAR-TAF: